Location: Goettingen
(51.5300°N, 9.9433°E)
Time: 20:28:25
(UTC+02:00)

ISS - Pass Details

Date: 18 July 2019
Orbit: 409 x 418 km, 51.6° (Epoch: 20 July)

Event Time Altitude Azimuth Distance (km) Brightness Sun altitude
Rises 01:28:08 0° 270° (W) 2,350 0.0 -17.4°
Reaches altitude 10° 01:30:14 10° 271° (W) 1,486 -1.0 -17.4°
Maximum altitude 01:33:34 86° 359° (N) 419 -3.8 -17.3°
Drops below altitude 10° 01:36:54 10° 90° (E) 1,481 -1.0 -17.3°
Sets 01:38:59 0° 91° (E) 2,341 0.1 -17.3°
